Theta_e
306 306 305 304 304 302 300 304 304 296 297 300 300 302 305 304 305 301 301 300 304 309 307 302 304 304 307 297 296 295 296 297 295 293 288 289 292 292 291 299 297 293 293 299
306 306 306 305 304 302 301 305 301 296 297 301 301 302 305 304 304 300 299 301 302 303 305 303 304 304 297 294 296 295 294 296 300 298 292 289 290 292 293 292 291 294 297 303
307 306 306 306 304 303 303 305 303 297 296 298 300 303 303 303 302 302 300 301 300 300 301 303 302 302 295 294 295 298 296 300 301 309 306 292 289 290 293 294 298 297 300 301
307 307 306 306 305 304 302 301 305 300 298 298 298 302 305 304 304 303 300 300 300 301 303 302 302 302 297 294 295 297 298 301 299 301 302 298 294 292 292 295 296 300 303 301
310 308 308 307 306 305 302 300 302 301 303 300 299 300 302 303 304 302 301 301 302 301 305 305 307 306 303 302 295 296 297 300 299 300 300 301 301 300 294 293 294 295 298 299
305 307 306 308 307 305 304 300 300 301 303 304 304 303 301 303 303 304 304 301 302 302 302 304 305 304 303 303 296 296 297 297 299 301 296 297 298 298 299 299 295 295 296 296
300 300 301 303 302 305 303 301 301 299 305 304 304 305 302 302 304 305 305 304 304 304 302 301 300 303 302 302 299 297 297 296 300 300 296 299 298 289 296 297 298 297 294 295
300 300 299 300 300 298 300 303 300 296 304 304 305 306 306 306 304 305 305 305 304 302 301 304 306 304 301 301 302 299 301 297 300 301 300 298 299 293 291 293 296 295 297 297
299 299 299 299 299 300 302 303 301 297 300 303 304 306 305 306 306 306 306 305 303 300 302 306 308 308 303 302 300 300 300 301 300 301 301 300 299 289 283 288 294 292 295 296
297 297 297 298 299 299 299 300 302 302 298 300 304 303 305 304 305 306 306 305 304 302 305 306 307 307 304 305 300 293 298 301 301 301 303 301 295 284 283 291 299 291 294 295
296 296 296 297 297 298 298 299 298 300 299 302 302 303 303 304 304 305 302 304 302 302 306 307 307 307 304 304 304 302 298 299 300 300 301 302 287 286 293 297 288 287 286 288
295 295 295 295 296 297 297 297 297 298 298 299 299 301 301 302 303 303 301 303 301 303 303 305 306 308 306 304 306 302 305 302 303 299 299 293 288 296 292 284 290 286 284 281
294 294 294 295 295 295 295 296 296 296 297 297 297 297 298 299 300 301 303 299 301 300 300 302 304 305 302 304 302 302 302 301 304 304 303 301 290 289 287 285 284 283 284 281
293 294 294 294 294 295 295 295 295 295 295 296 298 297 297 297 297 298 299 300 299 297 297 301 303 303 301 302 303 303 303 300 301 302 299 295 298 290 288 283 282 281 280 279
293 293 293 294 294 294 294 293 293 293 294 295 294 293 293 295 296 295 296 297 298 299 299 299 299 299 298 300 300 300 299 299 300 301 293 294 288 281 282 281 280 278 277 277
292 293 293 293 293 293 293 293 293 293 294 294 293 293 293 291 291 292 293 294 296 297 298 297 296 296 295 298 298 296 286 280 281 290 278 278 277 278 278 279 278 277 276 276
293 293 293 293 293 292 293 293 293 293 292 291 293 295 283 285 287 286 289 288 291 292 295 296 296 296 293 293 295 288 280 277 276 274 274 275 275 274 273 272 272 272 270 270
292 292 292 292 292 292 292 292 292 292 291 291 292 292 289 281 288 287 282 288 286 286 285 284 286 286 286 289 284 274 273 272 271 270 269 270 271 270 270 270 270 269 267 266
292 292 292 291 291 291 291 291 291 290 291 289 291 292 292 284 284 284 284 284 287 281 286 284 282 287 287 275 272 273 272 271 269 268 269 269 270 270 270 270 269 267 265 263
291 291 290 289 290 289 289 290 289 290 286 282 283 280 286 283 285 286 284 282 285 285 280 278 279 281 267 265 268 268 265 265 266 268 268 269 268 268 267 265 265 264 262 261
290 289 289 288 288 288 288 286 289 285 281 277 277 277 280 279 283 284 279 282 281 280 275 276 277 276 266 263 263 263 264 264 265 265 267 268 268 265 263 262 261 260 260 258
290 288 287 287 287 287 286 285 284 279 277 277 277 277 277 278 278 281 279 281 280 282 277 278 276 271 262 261 261 261 261 263 263 263 263 263 263 262 261 260 259 258 258 257
288 287 279 281 278 278 278 277 281 278 275 276 276 277 277 278 278 279 280 280 279 274 278 280 276 268 264 261 260 259 260 261 261 260 260 259 258 259 259 257 257 257 257 257
278 279 276 276 276 275 276 274 274 274 274 274 274 275 276 276 277 277 279 274 274 278 278 279 273 269 267 264 261 261 260 260 260 259 259 258 258 256 257 258 257 257 257 257
272 275 275 275 275 275 274 273 274 275 274 273 274 276 276 278 277 277 277 277 278 279 277 274 269 265 263 260 260 260 258 257 256 257 255 256 257 257 256 257 257 257 257 257
270 270 273 273 273 271 270 270 271 270 271 271 274 276 278 278 276 278 279 279 274 272 270 270 267 265 262 261 260 259 258 257 257 258 258 257 256 257 257 257 257 257 257 257
271 271 272 271 271 270 272 272 271 270 270 275 276 277 275 276 277 276 272 270 270 269 268 269 265 262 261 259 259 259 259 258 258 258 258 257 257 256 256 252 258 258 258 258
Wind_Speed
23 21 20 19 17 13 10 4 3 9 15 4 4 7 5 3 3 3 3 2 3 7 8 9 8 10 7 11 9 9 7 3 5 7 2 4 2 7 7 4 6 3 1 10
27 25 24 23 23 24 9 2 3 5 7 5 10 6 4 3 4 5 6 7 7 3 5 2 8 4 4 8 8 8 9 4 2 1 3 2 4 6 3 2 2 6 4 9
30 28 28 27 28 29 13 2 4 3 3 5 3 8 14 8 9 6 5 4 4 3 4 4 2 2 1 6 3 4 8 3 6 11 3 6 6 7 14 11 4 5 21 23
32 34 32 32 32 35 23 3 5 6 6 9 14 4 3 9 8 6 7 4 9 7 5 3 5 5 3 2 7 3 5 6 6 15 10 5 7 6 17 19 27 14 30 20
36 39 36 37 37 38 26 5 4 2 2 7 15 19 10 15 10 7 7 8 9 8 10 14 9 7 8 6 8 8 5 4 3 10 12 12 18 22 17 27 23 26 30 31
23 22 14 27 40 44 14 15 8 3 7 5 8 9 18 20 13 11 19 14 8 12 24 14 12 8 5 6 12 13 8 5 5 6 3 6 10 21 23 21 14 27 20 32
13 18 21 20 16 19 27 15 7 4 9 12 14 12 17 20 19 18 10 18 11 5 7 3 3 10 12 12 12 13 8 8 4 2 3 7 11 3 13 22 26 23 18 23
14 13 14 17 17 21 19 13 5 2 5 11 16 18 18 16 17 20 19 15 10 10 6 4 4 4 3 11 20 19 19 10 5 5 9 10 15 5 7 9 14 23 25 31
15 14 16 17 14 16 18 21 26 4 3 10 15 13 17 13 10 13 21 17 8 7 3 5 7 9 7 6 4 12 16 16 10 7 6 10 13 3 3 6 10 11 24 27
15 16 17 16 17 15 17 14 16 9 4 6 6 5 5 5 7 6 2 6 5 13 7 9 11 12 5 12 8 8 5 9 20 18 16 6 9 8 2 6 19 8 17 21
15 15 17 16 15 14 16 16 18 16 4 10 15 12 12 7 6 10 2 1 1 5 10 9 10 8 12 13 23 14 15 11 8 11 13 18 8 4 12 14 2 3 2 6
18 18 19 19 18 18 17 19 20 21 9 8 16 19 27 33 18 5 8 5 5 6 5 3 2 4 3 6 14 8 14 13 10 12 8 6 11 13 17 2 4 3 4 4
17 17 18 18 18 19 20 24 20 13 4 6 11 15 37 31 25 20 10 3 5 6 4 2 5 9 4 9 13 19 15 10 15 19 17 18 8 5 3 4 2 3 2 3
18 18 18 17 16 16 16 15 13 11 3 4 6 13 9 25 33 38 35 22 6 1 3 5 8 11 3 11 11 14 6 4 4 10 11 4 11 4 4 6 6 4 4 0
18 17 17 17 16 16 16 16 18 21 4 3 4 15 33 21 11 16 11 14 12 10 12 11 15 16 17 12 7 11 14 20 12 17 1 2 1 3 2 5 4 5 5 3
17 16 16 15 16 15 11 2 6 26 20 3 4 6 7 9 13 8 7 7 6 6 6 5 5 9 4 8 9 9 1 3 3 3 4 3 5 4 3 4 6 6 6 7
15 15 16 16 16 14 6 4 4 1 7 2 4 5 6 9 3 2 1 1 1 2 3 5 9 9 3 2 4 1 5 5 6 6 4 2 2 3 7 10 11 15 15 15
14 13 12 13 13 12 11 25 26 10 2 3 3 4 2 6 1 2 2 2 1 2 1 1 1 1 1 4 2 5 5 6 6 4 4 4 8 9 8 8 9 9 8 7
12 8 6 3 2 3 2 2 2 4 5 2 2 4 3 2 1 0 1 1 3 0 1 2 0 1 5 1 4 5 4 2 5 4 6 6 8 7 7 8 7 9 7 7
8 4 3 2 1 4 6 2 1 2 2 3 1 3 1 3 1 1 1 0 1 2 1 1 2 3 3 2 3 3 4 4 4 5 4 5 5 6 5 6 5 6 5 5
4 2 1 2 2 3 1 2 1 3 2 4 3 3 3 3 2 1 2 0 2 2 2 2 2 3 2 3 4 6 6 4 4 3 5 3 6 7 7 6 6 8 8 4
4 8 6 3 3 1 1 1 2 5 3 4 4 3 2 2 2 2 1 1 1 1 1 2 2 1 2 2 1 3 4 5 6 7 7 7 7 7 7 6 6 7 9 8
7 4 4 4 5 7 6 7 3 3 5 4 5 4 2 2 1 1 2 2 0 1 1 1 2 1 1 2 2 3 4 5 5 5 7 11 9 11 8 8 9 9 7 5
4 5 6 5 4 4 3 3 3 3 3 6 7 3 2 2 2 2 2 1 1 1 1 1 2 5 1 2 2 3 2 3 5 5 6 6 7 8 7 7 8 7 5 4
4 5 5 4 2 1 2 3 3 1 4 6 5 3 1 1 2 0 1 2 3 2 4 3 4 4 3 2 2 2 3 3 3 3 3 5 6 6 5 5 6 6 5 4
4 6 3 4 2 4 3 2 4 2 6 4 3 3 2 0 3 2 3 5 5 3 4 7 4 4 3 2 2 3 4 5 5 6 5 6 6 5 4 5 6 7 7 7
4 3 1 1 2 3 4 4 4 9 3 3 3 5 4 3 4 3 4 3 6 7 8 5 2 3 5 3 3 3 6 6 8 8 7 6 6 6 5 2 6 9 8 9
Wind_Direction
250 246 237 224 208 193 184 243 224 160 157 187 207 224 203 335 242 271 274 310 281 193 170 187 218 213 196 130 138 165 196 166 172 196 11 59 211 202 163 169 236 223 169 262
250 244 238 227 210 190 164 225 129 173 199 207 223 221 229 227 230 196 202 227 222 7 206 201 218 167 78 130 152 161 169 202 164 98 357 24 216 211 227 32 104 197 190 259
249 245 239 229 217 200 199 197 178 147 218 273 252 228 241 216 206 231 206 232 104 122 209 235 221 145 91 170 199 108 165 216 198 241 177 124 192 205 201 192 195 220 236 270
246 245 239 231 221 204 189 198 228 184 185 227 227 216 273 225 214 219 172 237 200 170 184 204 208 176 136 202 215 139 149 238 210 253 261 200 198 183 196 207 220 214 259 222
251 248 241 237 224 205 194 186 182 196 253 208 198 217 225 229 229 158 218 230 204 187 219 211 198 187 179 194 178 174 191 254 219 263 241 235 251 247 196 214 223 235 249 266
275 277 310 244 226 202 202 200 200 164 185 182 191 196 211 218 214 231 233 211 201 203 224 217 237 204 201 180 163 185 180 199 166 257 126 105 271 238 226 229 217 220 234 241
275 264 269 264 270 240 210 203 173 180 231 204 212 220 205 218 207 220 219 221 213 210 114 51 13 237 239 222 196 175 177 183 192 200 116 222 250 222 213 218 231 212 230 250
270 263 257 252 253 248 263 240 207 194 243 223 231 231 226 228 228 228 235 232 210 152 109 170 209 192 236 229 222 202 203 178 212 216 211 278 299 228 159 174 250 222 222 242
284 272 267 262 252 243 245 230 211 191 243 227 230 232 227 230 233 244 242 240 201 128 169 187 221 230 192 204 242 219 205 210 205 200 225 228 244 252 145 96 265 163 204 230
271 282 278 269 264 253 246 254 247 207 202 237 217 212 202 170 208 247 278 222 214 185 204 221 230 235 212 230 199 178 180 202 218 227 240 251 245 168 159 139 262 191 189 216
266 269 273 277 272 264 258 260 249 244 251 257 239 239 236 224 203 232 128 171 148 179 219 228 226 225 226 228 235 223 196 182 205 229 242 250 146 54 185 234 317 164 188 230
271 271 272 270 266 262 260 267 262 256 246 272 278 250 250 245 259 205 194 226 158 200 227 240 249 247 227 229 243 246 242 223 220 193 210 216 189 220 229 159 179 181 157 152
275 276 276 276 274 272 266 265 265 266 266 265 260 240 252 256 251 258 252 221 209 207 188 238 233 236 198 263 263 259 246 241 246 251 237 257 235 244 90 47 45 80 53 96
281 277 274 272 268 267 273 263 264 245 260 257 270 275 249 252 241 236 239 240 216 204 214 233 249 248 211 248 263 255 240 354 279 276 270 288 253 150 144 152 141 128 88 39
277 277 277 276 273 269 267 267 260 252 238 299 305 308 282 270 251 245 221 214 235 243 253 253 262 265 267 240 237 252 263 265 256 268 259 190 58 62 55 133 140 136 132 109
277 275 274 271 271 270 272 257 285 239 235 263 248 246 229 196 197 187 194 203 220 229 240 238 254 269 245 260 271 277 72 84 68 288 58 74 107 64 17 116 113 104 96 102
279 273 273 272 267 257 220 234 135 134 338 218 291 282 11 352 98 71 122 79 181 231 243 227 251 257 219 236 255 15 49 71 79 64 98 105 45 117 66 81 74 88 79 71
274 268 280 284 270 266 250 255 263 270 178 220 244 245 198 7 253 132 350 154 124 190 292 58 117 3 160 249 346 100 111 102 76 68 51 93 109 87 86 93 101 93 89 91
270 277 276 220 193 204 234 319 227 210 216 249 252 343 337 318 109 92 152 333 193 126 214 117 49 185 225 355 346 14 47 33 123 85 81 86 101 107 109 107 97 106 104 98
236 182 146 220 106 296 301 133 178 195 89 19 3 323 240 322 146 210 69 45 258 211 156 93 190 252 106 327 341 52 74 96 90 102 107 114 120 125 100 88 78 101 100 99
156 165 156 89 57 27 19 290 237 3 82 12 342 25 332 26 299 354 16 1 141 223 276 110 220 267 306 348 48 37 45 61 51 50 49 65 137 137 128 107 90 100 108 97
135 118 82 63 26 358 341 45 64 45 25 358 331 328 303 283 275 262 157 255 112 251 239 244 275 286 218 154 112 41 41 65 61 51 73 67 78 101 109 111 110 112 122 126
74 56 52 15 342 48 26 356 24 356 355 8 327 317 312 287 269 286 292 255 128 300 229 267 51 329 189 149 83 51 34 72 83 79 77 91 93 102 111 116 128 136 134 132
60 40 36 37 24 32 16 331 312 313 286 310 309 279 296 315 298 348 283 70 343 245 233 76 32 351 53 111 131 128 150 107 114 106 114 117 115 111 109 124 143 143 156 174
59 34 46 43 318 126 296 280 270 296 316 316 298 263 222 265 297 11 345 214 236 36 41 12 344 317 298 227 201 174 159 148 137 140 134 127 124 127 134 162 170 181 186 210
65 43 34 336 336 337 348 317 310 340 323 282 225 262 259 138 331 264 359 325 44 1 341 319 326 326 292 270 215 197 177 173 158 160 162 163 169 167 171 187 211 217 222 234
51 46 86 304 252 289 321 328 334 332 314 339 309 351 4 290 325 48 17 41 326 324 316 314 304 275 298 272 229 191 181 179 180 180 183 188 188 191 196 229 238 233 236 251